Location: Arbon
(43.0005°N, 0.7472°E)
Time: 14:24:02
(UTC+00:00)

Envisat - Pass Details

Date: 30 October 2020
Orbit: 764 x 766 km, 98.1° (Epoch: 30 November)

Event Time Altitude Azimuth Distance (km) Brightness Sun altitude
Rises 05:08:23 0° 23° (NNE) 3,241 6.5 -15.3°
Reaches altitude 10° 05:11:00 10° 35° (NE) 2,309 5.9 -14.8°
Maximum altitude 05:15:25 29° 95° (E) 1,371 5.2 -14.0°
Drops below altitude 10° 05:19:47 10° 155° (SSE) 2,294 5.9 -13.2°
Sets 05:22:21 0° 166° (SSE) 3,215 6.5 -12.8°
